Theta_e
290 289 288 287 287 287 286 287 288 289 289 290 290 291 292 292 291 292 293 294 296 296
289 288 286 286 287 286 287 287 288 288 288 289 290 290 290 290 290 291 292 292 293 295
288 287 287 286 286 285 286 286 286 286 287 287 288 289 290 290 290 290 290 292 292 293
288 287 287 286 286 285 285 285 285 285 286 286 286 287 287 288 289 289 289 291 290 289
287 286 285 284 283 284 284 285 285 285 285 285 286 286 286 286 289 288 288 289 289 288
285 284 283 283 283 283 283 283 284 285 285 285 286 286 286 286 287 288 289 289 288 288
283 283 283 283 283 282 283 283 284 284 285 285 285 286 285 286 286 286 287 288 288 289
283 283 283 283 282 283 283 284 284 284 285 285 285 286 285 285 286 286 286 287 287 288
282 282 282 282 282 283 283 284 284 284 284 284 285 288 291 288 286 286 286 286 287 288
282 281 282 282 282 283 283 284 283 283 284 284 285 288 290 289 287 286 286 286 287 287
277 278 280 281 283 284 284 284 283 283 284 285 285 287 287 286 284 284 285 285 287 287
276 276 278 279 283 284 284 284 283 283 282 284 284 287 286 285 284 283 283 284 285 285
278 277 277 281 282 283 284 283 284 283 282 281 283 286 286 285 284 282 283 284 284 285
278 279 281 282 283 282 282 282 281 282 282 281 281 284 286 286 283 283 282 282 282 284
Wind_Speed
13 9 10 11 11 10 11 12 15 13 13 14 15 14 14 12 12 15 13 16 14 12
12 13 12 14 11 9 12 11 13 13 14 14 15 15 16 13 15 14 15 13 15 14
12 13 13 12 13 14 14 13 14 15 14 15 15 15 16 12 15 15 12 12 13 16
12 12 12 11 12 13 15 15 14 15 15 15 15 15 15 15 18 17 14 15 14 17
12 12 12 12 13 13 13 13 13 14 14 16 15 15 17 15 15 15 15 15 15 15
11 10 11 12 13 13 13 13 14 14 15 13 13 14 14 14 14 14 14 12 14 15
10 10 11 12 13 12 13 13 13 13 13 12 13 12 13 13 12 10 11 11 10 10
9 9 10 11 11 12 11 11 12 13 13 12 11 8 10 11 10 10 10 8 9 9
8 9 9 10 10 11 13 12 13 13 14 14 9 22 21 13 9 9 10 9 8 9
8 9 9 9 10 11 12 12 12 13 14 14 13 23 17 8 4 4 6 8 9 10
5 8 9 8 9 10 10 11 11 13 14 12 11 20 18 16 6 4 3 3 7 7
4 6 7 7 9 9 9 9 10 11 13 14 13 22 20 13 8 8 9 7 6 4
4 5 6 7 7 8 8 8 8 9 12 15 14 25 23 15 7 9 7 9 9 14
3 3 4 6 5 7 7 7 8 8 9 12 15 17 25 23 10 7 7 8 8 8
Wind_Direction
302 299 300 296 294 289 287 286 287 279 272 268 265 262 262 257 255 260 255 261 255 261
309 309 302 298 291 287 286 285 285 285 282 276 270 263 258 253 254 252 256 251 256 257
310 305 302 300 296 294 291 288 287 285 279 276 273 267 262 256 252 245 250 251 255 254
312 313 313 305 303 300 299 297 290 289 283 275 271 262 259 253 253 243 242 245 243 256
317 322 319 309 304 303 294 295 296 288 284 282 272 262 260 255 245 233 239 240 244 247
323 320 314 313 312 309 308 307 306 301 297 288 280 268 255 249 245 234 240 245 250 246
315 315 313 311 314 318 320 317 317 313 302 301 293 277 257 241 234 232 233 236 245 246
310 308 312 313 322 329 329 323 321 319 323 317 306 293 265 236 228 226 230 229 232 239
308 321 325 324 333 336 343 338 339 336 335 333 325 323 316 222 220 221 227 235 235 236
325 324 326 327 343 342 348 344 346 344 347 345 341 350 354 222 219 224 234 241 241 241
321 315 323 331 354 348 345 354 353 356 357 356 358 8 25 39 40 33 356 278 237 223
288 306 322 331 351 346 354 355 359 6 4 11 15 22 25 22 29 37 34 30 32 72
289 303 324 328 339 338 354 350 351 9 13 12 16 30 32 25 21 33 33 38 45 60
295 309 323 328 343 343 341 348 353 4 16 18 19 24 36 37 28 25 36 39 39 50